This is the latest recevied weather packets stored in our database for station/object OK1FRN-6. If no packets are shown the sender has not sent any weather packets the latest 10 day(s).
| Time | Temp. | Humidity | Pressure | Rain* | Wind** | Luminosity | Snow |
|---|---|---|---|---|---|---|---|
| 1777845010 | 14.44° C | 45% | 1013.5 hPa | - | - | - | - |
| 1777844704 | 14.44° C | 45% | 1013.5 hPa | - | - | - | - |
| 1777844398 | 15° C | 44% | 1013.5 hPa | - | - | - | - |
| 1777844092 | 15° C | 43% | 1013.5 hPa | - | - | - | - |
| 1777843786 | 15.56° C | 43% | 1013.5 hPa | - | - | - | - |
| 1777843479 | 15.56° C | 42% | 1013.5 hPa | - | - | - | - |
| 1777843173 | 15.56° C | 42% | 1013.5 hPa | - | - | - | - |
| 1777842867 | 16.11° C | 41% | 1013.6 hPa | - | - | - | - |
| 1777842561 | 16.11° C | 41% | 1013.6 hPa | - | - | - | - |
| 1777842254 | 16.67° C | 40% | 1013.5 hPa | - | - | - | - |
| 1777841948 | 16.67° C | 40% | 1013.5 hPa | - | - | - | - |
| 1777841641 | 16.67° C | 39% | 1013.5 hPa | - | - | - | - |
| 1777841335 | 17.22° C | 39% | 1013.6 hPa | - | - | - | - |
| 1777841029 | 17.22° C | 39% | 1013.5 hPa | - | - | - | - |
| 1777840722 | 17.78° C | 38% | 1013.5 hPa | - | - | - | - |
| 1777840416 | 17.78° C | 38% | 1013.5 hPa | - | - | - | - |
| 1777840109 | 17.78° C | 38% | 1013.5 hPa | - | - | - | - |
| 1777839803 | 17.78° C | 37% | 1013.6 hPa | - | - | - | - |
| 1777839497 | 18.33° C | 37% | 1013.6 hPa | - | - | - | - |
| 1777839190 | 18.33° C | 37% | 1013.6 hPa | - | - | - | - |
| 1777838884 | 18.89° C | 36% | 1013.5 hPa | - | - | - | - |
| 1777838270 | 18.89° C | 35% | 1013.7 hPa | - | - | - | - |
| 1777837964 | 19.44° C | 35% | 1013.8 hPa | - | - | - | - |
| 1777837657 | 19.44° C | 35% | 1013.7 hPa | - | - | - | - |
| 1777837351 | 20° C | 35% | 1013.6 hPa | - | - | - | - |
* Rain since midnight (hover to see other rain measurements)
** Current wind speed in m/s (hover to see current wind gust speed)